Date String (YYYY-MM-DD hh:mm:ss) UTC,Instrument flags,Ambient pressure (hPa),Sample flow (lpm),Bypass flow (lpm),Sample temperature (°C),Ambient temperature (°C),ASC tube jacket temperature (°C),LED temperature (°C),Box temperature (°C),Sample RH (%),Span deviation,Mass concentration (μg/m³),Mass concentration (μg/m³),Mass concentration (μg/m³)
DateTimeUTC,F1_M11,P_M11,Q1_M11,Q2_M11,T1_M11,T2_M11,T3_M11,T4_M11,T5_M11,U1_M11,ZSPAN_M11,X0_M11,X2_M11,X1_M11
2022-05-17 15:00:00,,0822.7,5.01,0.00,29.6,27.0,00.0,38.8,31.3,16.6,0000.0,0019.06,0004.93,0003.49
2022-05-17 15:01:00,,0822.7,4.99,0.00,29.6,27.4,00.0,38.8,31.3,16.3,0000.0,0019.15,0004.92,0003.48
2022-05-17 15:02:00,,0822.7,5.00,0.00,29.6,27.6,00.0,38.7,31.4,17.4,0000.0,0019.05,0004.91,0003.46
2022-05-17 15:03:00,,0822.7,5.00,0.00,29.6,27.8,00.0,38.7,31.4,17.1,0000.0,0019.07,0004.96,0003.47
2022-05-17 15:04:00,,0822.7,5.00,0.00,29.7,28.0,00.0,38.7,31.4,17.4,0000.0,0017.97,0004.94,0003.48
2022-05-17 15:05:00,,0822.6,5.01,0.00,29.7,28.2,00.0,38.7,31.5,17.3,0000.0,0017.89,0004.92,0003.48
2022-05-17 15:06:00,,0822.7,5.00,0.00,29.7,28.3,00.0,38.7,31.5,17.8,0000.0,0017.42,0004.89,0003.48
2022-05-17 15:07:00,,0822.7,5.01,0.00,29.7,28.4,00.0,38.7,31.5,17.2,0000.0,0017.01,0004.91,0003.50
2022-05-17 15:08:00,,0822.7,4.99,0.00,29.7,28.5,00.0,38.8,31.6,17.7,0000.0,0016.60,0004.93,0003.51
2022-05-17 15:09:00,,0822.7,5.00,0.00,29.8,28.6,00.0,38.8,31.6,17.4,0000.0,0016.56,0004.94,0003.52
2022-05-17 15:10:00,,0822.6,4.99,0.00,29.8,28.7,00.0,38.8,31.6,17.1,0000.0,0016.78,0004.95,0003.52
2022-05-17 15:11:00,,0822.7,4.99,0.00,29.8,28.7,00.0,38.8,31.7,16.9,0000.0,0017.43,0005.06,0003.54
2022-05-17 15:12:00,,0822.7,5.00,0.00,29.8,28.8,00.0,38.8,31.7,16.7,0000.0,0017.75,0005.09,0003.54
2022-05-17 15:13:00,,0822.7,5.01,0.00,29.9,28.4,00.0,38.8,31.7,17.1,0000.0,0016.88,0005.11,0003.56
2022-05-17 15:14:00,,0822.7,5.00,0.00,29.8,26.3,00.0,38.8,31.3,17.0,0000.0,0016.08,0005.11,0003.57
2022-05-17 15:15:00,,0822.7,4.98,0.00,29.7,25.4,00.0,38.7,31.0,16.7,0000.0,0015.64,0005.13,0003.57
2022-05-17 15:16:00,,0822.7,5.00,0.00,29.6,25.9,00.0,38.7,31.1,16.6,0000.0,0016.61,0005.16,0003.57
2022-05-17 15:17:00,,0822.7,5.01,0.00,29.5,26.3,00.0,38.7,31.1,16.6,0000.0,0017.43,0005.15,0003.57
2022-05-17 15:18:00,,0822.7,5.00,0.00,29.5,26.7,00.0,38.7,31.1,16.9,0000.0,0018.04,0005.13,0003.55
2022-05-17 15:19:00,,0822.7,4.99,0.00,29.5,27.1,00.0,38.6,31.2,17.2,0000.0,0018.98,0005.11,0003.54
2022-05-17 15:20:00,,0822.7,5.01,0.00,29.5,27.4,00.0,38.6,31.2,17.4,0000.0,0019.10,0005.07,0003.53
2022-05-17 15:21:00,,0822.8,5.01,0.00,29.5,27.6,00.0,38.6,31.3,17.3,0000.0,0018.30,0005.04,0003.53
2022-05-17 15:22:00,,0822.7,5.01,0.00,29.5,27.9,00.0,38.6,31.3,17.2,0000.0,0017.95,0004.99,0003.53
2022-05-17 15:23:00,,0822.8,5.00,0.00,29.6,28.0,00.0,38.6,31.4,17.2,0000.0,0018.09,0005.00,0003.53
2022-05-17 15:24:00,,0822.8,5.01,0.00,29.6,28.2,00.0,38.6,31.4,17.2,0000.0,0019.51,0005.03,0003.52
2022-05-17 15:25:00,,0822.8,4.99,0.00,29.6,28.3,00.0,38.6,31.4,17.8,0000.0,0020.67,0004.95,0003.51
2022-05-17 15:26:00,,0822.9,5.00,0.00,29.6,28.4,00.0,38.6,31.5,16.7,0000.0,0020.45,0004.87,0003.51
2022-05-17 15:27:00,,0822.9,5.01,0.00,29.7,28.5,00.0,38.6,31.5,16.9,0000.0,0019.63,0004.84,0003.50
2022-05-17 15:28:00,,0822.9,5.00,0.00,29.7,28.6,00.0,38.7,31.5,17.4,0000.0,0019.98,0004.88,0003.51
2022-05-17 15:29:00,,0822.8,4.99,0.00,29.7,28.7,00.0,38.7,31.6,17.0,0000.0,0020.15,0004.95,0003.52
2022-05-17 15:30:00,,0822.8,5.00,0.00,29.7,28.7,00.0,38.7,31.6,16.7,0000.0,0019.80,0004.99,0003.53
2022-05-17 15:31:00,,0822.7,5.00,0.00,29.8,28.8,00.0,38.7,31.6,16.8,0000.0,0019.66,0005.03,0003.55
2022-05-17 15:32:00,,0822.7,5.01,0.00,29.8,27.7,00.0,38.7,31.5,16.3,0000.0,0020.21,0005.04,0003.56
2022-05-17 15:33:00,,0822.9,4.99,0.00,29.7,25.6,00.0,38.7,31.1,16.6,0000.0,0020.74,0005.06,0003.57
2022-05-17 15:34:00,,0822.7,5.00,0.00,29.6,25.5,00.0,38.6,31.0,16.5,0000.0,0020.60,0005.10,0003.57
2022-05-17 15:35:00,,0822.7,5.01,0.00,29.5,26.0,00.0,38.6,31.0,16.8,0000.0,0019.48,0005.09,0003.57
2022-05-17 15:36:00,,0822.7,5.01,0.00,29.4,26.4,00.0,38.6,31.0,16.7,0000.0,0018.41,0005.12,0003.58
2022-05-17 15:37:00,,0822.7,4.99,0.00,29.4,26.8,00.0,38.5,31.0,16.3,0000.0,0018.37,0005.17,0003.58
2022-05-17 15:38:00,,0822.7,5.01,0.00,29.4,27.1,00.0,38.5,31.1,16.4,0000.0,0017.98,0005.18,0003.59
2022-05-17 15:39:00,,0822.8,5.00,0.00,29.4,27.4,00.0,38.5,31.2,16.9,0000.0,0017.07,0005.15,0003.60
2022-05-17 15:40:00,,0822.7,4.99,0.00,29.5,27.7,00.0,38.5,31.2,16.8,0000.0,0016.58,0005.14,0003.59
2022-05-17 15:41:00,,0822.8,4.98,0.00,29.5,27.9,00.0,38.5,31.3,16.8,0000.0,0015.87,0005.16,0003.59
2022-05-17 15:42:00,,0822.7,5.00,0.00,29.5,28.1,00.0,38.5,31.3,16.2,0000.0,0016.07,0005.23,0003.59
2022-05-17 15:43:00,,0822.7,5.01,0.00,29.5,28.2,00.0,38.5,31.4,16.2,0000.0,0015.98,0005.28,0003.60
2022-05-17 15:44:00,,0822.7,5.01,0.00,29.6,28.3,00.0,38.5,31.4,16.2,0000.0,0015.36,0005.28,0003.59
2022-05-17 15:45:00,,0822.7,5.00,0.00,29.6,28.4,00.0,38.6,31.4,15.9,0000.0,0015.30,0005.27,0003.60
2022-05-17 15:46:00,,0822.7,4.99,0.00,29.6,28.5,00.0,38.6,31.5,15.7,0000.0,0016.15,0005.34,0003.61
2022-05-17 15:47:00,,0822.7,5.02,0.00,29.6,28.6,00.0,38.6,31.5,15.9,0000.0,0016.80,0005.42,0003.62
2022-05-17 15:48:00,,0822.8,5.00,0.00,29.7,28.4,00.0,38.6,31.5,16.2,0000.0,0017.49,0005.47,0003.63
2022-05-17 15:49:00,,0822.8,5.00,0.00,29.6,26.5,00.0,38.6,31.2,16.2,0000.0,0017.86,0005.54,0003.64
2022-05-17 15:50:00,,0822.8,5.01,0.00,29.5,25.1,00.0,38.5,31.0,16.9,0000.0,0017.68,0005.63,0003.66
2022-05-17 15:51:00,,0822.8,4.99,0.00,29.4,25.5,00.0,38.5,30.9,16.5,0000.0,0018.02,0005.68,0003.68
2022-05-17 15:52:00,,0822.8,5.00,0.00,29.4,26.0,00.0,38.5,30.9,16.6,0000.0,0018.77,0005.70,0003.70
2022-05-17 15:53:00,,0822.8,4.99,0.00,29.3,26.4,00.0,38.4,30.9,17.4,0000.0,0018.88,0005.69,0003.72
2022-05-17 15:54:00,,0822.8,5.01,0.00,29.3,26.8,00.0,38.4,31.0,17.2,0000.0,0018.87,0005.72,0003.71
2022-05-17 15:55:00,,0822.8,5.00,0.00,29.3,27.1,00.0,38.4,31.0,17.2,0000.0,0019.33,0005.70,0003.73
2022-05-17 15:56:00,,0822.8,5.00,0.00,29.3,27.4,00.0,38.4,31.1,17.0,0000.0,0020.12,0005.75,0003.75
2022-05-17 15:57:00,,0822.8,5.00,0.00,29.4,27.7,00.0,38.4,31.2,16.7,0000.0,0019.63,0005.67,0003.79
2022-05-17 15:58:00,,0822.8,5.00,0.00,29.4,27.9,00.0,38.4,31.2,16.5,0000.0,0019.26,0005.68,0003.85
2022-05-17 15:59:00,,0822.8,5.00,0.00,29.4,28.0,00.0,38.4,31.2,16.1,0000.0,0020.08,0005.71,0003.90
